Flag for U.S.A. Weather past 2 weeks in Lewiston, Idaho, U.S.A.

Now
54 °F

Partly sunny.


Feels Like: 54 °F
Forecast: 39 / 54 °F
Wind: No wind

Location: Lewiston-Nez Perce County Airport


UV Index: 0 (Low)

Visibility: 10 mi


Pressure: 29.90 "Hg

Humidity: 40%

Dew point: 30 °F

Location of LewistonLocation

Historic Weather in Lewiston

°F

Lewiston temperature yesterday

Maximum temperature yesterday: 57 °F (at 12:56 AM)
Minimum temperature yesterday: 45 °F (at 11:56 PM)
Average temperature yesterday: 51 °F

Past Weeks' High & Low Weather Summary

 TemperatureHumidityPressure
High74 °F (Apr 8, 3:56 PM)86% (Apr 17, 7:56 PM)30.35 "Hg (Apr 17, 7:56 PM)
Low35 °F (Apr 14, 3:56 AM)14% (Apr 13, 4:56 PM)29.67 "Hg (Apr 22, 2:56 AM)
Average53 °F44%30.01 "Hg
* Reported Apr 8 11:56 AM — Apr 23 11:56 AM, Lewiston, Weather by CustomWeather, © 2014

Note: Actual official high and low records may vary slightly from our data, if they occured in-between our weather recording intervals... More about our weather records

Advertising

Historic Weather Conditions — Data for Previous 24 hours

 ConditionsComfort  
Time TempWeatherWind HumidityBarometerVisibility
11:56 AM
Apr 23
54 °FPartly sunny.No wind40%29.90 "Hg10 mi
10:56 AM52 °FScattered clouds.6 mph47%29.92 "Hg10 mi
9:56 AM48 °FMostly cloudy.5 mph56%29.92 "Hg10 mi
8:56 AM45 °FMostly cloudy.5 mph68%29.93 "Hg10 mi
7:56 AM42 °FMostly cloudy.No wind71%29.93 "Hg10 mi
6:56 AM42 °FMore clouds than sun.5 mph65%29.92 "Hg10 mi
5:56 AM42 °FMostly cloudy.No wind60%29.90 "Hg10 mi
4:56 AM42 °FMostly cloudy.No wind57%29.90 "Hg10 mi
3:56 AM41 °FClear.No wind58%29.91 "Hg10 mi
2:56 AM43 °FClear.7 mph53%29.91 "Hg10 mi
1:56 AM44 °FOvercast.8 mph53%29.91 "Hg10 mi
12:56 AM44 °FClear.7 mph51%29.91 "Hg10 mi
11:56 PM
Apr 22
45 °FPassing clouds.3 mph53%29.90 "Hg10 mi
10:56 PM46 °FOvercast.3 mph50%29.89 "Hg10 mi
9:56 PM47 °FClear.No wind44%29.88 "Hg10 mi
8:56 PM49 °FClear.6 mph41%29.85 "Hg10 mi
7:56 PM50 °FSunny.7 mph43%29.83 "Hg10 mi
6:56 PM52 °FPartly sunny.18 mph35%29.80 "Hg10 mi
5:56 PM54 °FScattered clouds.15 mph34%29.80 "Hg10 mi
4:56 PM53 °FBroken clouds.17 mph38%29.79 "Hg10 mi
3:56 PM51 °FPassing clouds.12 mph54%29.78 "Hg10 mi
2:56 PM53 °FBroken clouds.21 mph51%29.75 "Hg10 mi
1:56 PM54 °FPassing clouds.14 mph53%29.74 "Hg10 mi
Weather by CustomWeather, © 2014

See weather overview